Butte, MT

12:49 PM MST on January 20, 2018 (GMT -0700)
Mooney

Weather History for KBTM - November, 2014

Change the Weather History Date:

Thursday, November 27, 2014

  Actual Average Record
Temperature  
Mean Temperature 45 °F 22 °F  
Max Temperature 51 °F 34 °F 63 °F (1917)
Min Temperature 39 °F 10 °F -24 °F (1896)
Degree Days  
Heating Degree Days 20 43  
Month to date heating degree days 1090 985  
Since 1 July heating degree days 2211 2356  
Cooling Degree Days 0 0  
Month to date cooling degree days 0 0  
Year to date cooling degree days 78 81  
Moisture  
Dew Point 29 °F    
Average Humidity 56    
Maximum Humidity 70    
Minimum Humidity 41    
Precipitation  
Precipitation T in 0.02 in 0.36 in (1949)
Month to date precipitation 0.98 0.54  
Year to date precipitation 14.25 12.20  
Sea Level Pressure  
Sea Level Pressure 29.97 in    
Wind  
Wind Speed 8 mph (SW)    
Max Wind Speed 25 mph    
Max Gust Speed 40 mph    
Visibility 10 miles    
Events      
T = Trace of Precipitation, MM = Missing Value Source: NWS Daily Summary

Daily Weather History Graph

Daily Weather History Graph

Search for Another Location

Airport or City:

Trip Planner

Search our weather history database for the weather conditions in past years. The results will help you decide how hot, cold, wet, or windy it might be!

Date:

Astronomy

Nov. 27, 2014 Rise Set
Actual Time 7:46 AM MST 4:48 PM MST
Civil Twilight 7:12 AM MST 5:22 PM MST
Nautical Twilight 6:35 AM MST 5:59 PM MST
Astronomical Twilight 6:00 AM MST 6:34 PM MST
Moon 11:56 AM MST (11/27) 10:42 PM MST (11/27)
Length of Visible Light 10h 09m
Length of Day
9h 02m
Waxing Crescent, 32% of the Moon is Illuminated
Nov 27
Waxing Crescent
Nov 29
First Quarter
Dec 6
Full
Dec 14
Last Quarter
Dec 21
New

Hourly Weather History & Observations

Time (MST) Temp. Windchill Dew Point Humidity Pressure Visibility Wind Dir Wind Speed Gust Speed Precip Events Conditions
12:53 AM 42.1 °F - 24.1 °F 49% 30.08 in 10.0 mi Calm Calm - N/A   Clear
1:53 AM 44.1 °F 41.5 °F 23.0 °F 43% 30.06 in 10.0 mi WSW 4.6 mph - N/A   Clear
2:53 AM 43.0 °F 38.8 °F 25.0 °F 49% 30.05 in 10.0 mi WSW 6.9 mph - N/A   Clear
3:53 AM 45.0 °F 40.6 °F 25.0 °F 46% 30.04 in 10.0 mi West 8.1 mph - N/A   Overcast
4:53 AM 45.0 °F 41.2 °F 24.1 °F 44% 30.03 in 10.0 mi West 6.9 mph - N/A   Partly Cloudy
5:53 AM 46.0 °F 39.9 °F 26.1 °F 46% 30.02 in 10.0 mi SSW 13.8 mph 19.6 mph N/A   Mostly Cloudy
6:53 AM 46.0 °F - 28.9 °F 51% 30.02 in 10.0 mi North - - N/A   Overcast
7:53 AM 46.0 °F 39.9 °F 28.9 °F 51% 30.02 in 10.0 mi West 13.8 mph 27.6 mph N/A   Overcast
8:53 AM 45.0 °F 41.2 °F 30.0 °F 56% 30.03 in 10.0 mi SSW 6.9 mph - N/A   Mostly Cloudy
9:53 AM 46.0 °F 39.3 °F 30.0 °F 54% 30.02 in 10.0 mi SW 16.1 mph 26.5 mph N/A   Clear
10:53 AM 44.1 °F 38.1 °F 30.0 °F 58% 30.04 in 10.0 mi SSW 11.5 mph - N/A   Mostly Cloudy
11:53 AM 46.0 °F - 30.9 °F 56% 30.01 in 10.0 mi Calm Calm - N/A   Overcast
12:53 PM 46.9 °F - 30.0 °F 52% 30.00 in 10.0 mi Calm Calm - N/A   Overcast
1:53 PM 51.1 °F - 30.0 °F 44% 29.94 in 10.0 mi Calm Calm - N/A   Overcast
2:53 PM 45.0 °F 43.5 °F 30.0 °F 56% 29.94 in 10.0 mi South 3.5 mph - N/A   Overcast
3:53 PM 41.0 °F 37.1 °F 30.9 °F 67% 29.93 in 10.0 mi South 5.8 mph - N/A   Overcast
4:53 PM 43.0 °F 37.7 °F 30.9 °F 62% 29.91 in 10.0 mi SSW 9.2 mph - N/A   Overcast
5:53 PM 45.0 °F 38.9 °F 32.0 °F 60% 29.90 in 10.0 mi SW 12.7 mph - 0.00 in   Mostly Cloudy
6:53 PM 45.0 °F 38.9 °F 33.1 °F 63% 29.89 in 10.0 mi SSW 12.7 mph 18.4 mph 0.00 in   Partly Cloudy
7:53 PM 43.0 °F 38.2 °F 33.1 °F 68% 29.88 in 10.0 mi South 8.1 mph - N/A   Scattered Clouds
8:53 PM 44.1 °F 38.6 °F 32.0 °F 63% 29.87 in 10.0 mi SSW 10.4 mph 20.7 mph N/A   Mostly Cloudy
9:53 PM 44.1 °F 40.1 °F 32.0 °F 63% 29.86 in 10.0 mi WSW 6.9 mph - N/A   Overcast
10:53 PM 44.1 °F 37.1 °F 30.9 °F 60% 29.87 in 10.0 mi SSW 15.0 mph 20.7 mph N/A   Overcast
11:53 PM 45.0 °F 43.5 °F 28.0 °F 52% 29.84 in 10.0 mi Variable 3.5 mph - N/A   Overcast